| time (UTC) | temp C | wind direction | speed KPH | gust KPH | rain 1hr cm | rain 24hr cm | rain mn cm | humidity % | barometer mb |
| 20260831130754 | 22 | 282 | 0.0 | 0.0 | 0.00 | 0.00 | 0.00 | 94 | 1015.9 |
| 20260831130249 | 22 | 298 | 0.0 | 0.0 | 0.00 | 0.00 | 0.00 | 95 | 1015.7 |
| 20260831125748 | 21 | 283 | 0.0 | 1.6 | 0.00 | 0.00 | 0.00 | 95 | 1015.8 |
| 20260831125244 | 21 | 278 | 0.0 | 0.0 | 0.00 | 0.00 | 0.00 | 96 | 1015.7 |
| 20260831124738 | 21 | 295 | 0.0 | 1.6 | 0.00 | 0.00 | 0.00 | 97 | 1015.6 |
| 20260831124235 | 21 | 308 | 0.0 | 0.0 | 0.00 | 0.00 | 0.00 | 98 | 1015.5 |
| 20260831123734 | 21 | 272 | 0.0 | 0.0 | 0.00 | 0.00 | 0.00 | 99 | 1015.3 |
| 20260831123233 | 21 | 293 | 0.0 | 0.0 | 0.00 | 0.00 | 0.00 | 99 | 1015.3 |
| 20260831122728 | 21 | 294 | 0.0 | 0.0 | 0.00 | 0.00 | 0.00 | 99 | 1015.3 |
| 20260831122224 | 21 | 326 | 0.0 | 0.0 | 0.00 | 0.00 | 0.00 | 99 | 1015.5 |
| 20260831121722 | 20 | 281 | 0.0 | 0.0 | 0.00 | 0.00 | 0.00 | 99 | 1015.4 |
| 20260831121220 | 20 | 279 | 0.0 | 0.0 | 0.00 | 0.00 | 0.00 | 99 | 1015.4 |
| 20260831120715 | 20 | 285 | 0.0 | 0.0 | 0.00 | 0.00 | 0.00 | 99 | 1015.7 |
| 20260831120209 | 20 | 299 | 0.0 | 0.0 | 0.00 | 0.00 | 0.00 | 99 | 1015.5 |
| 20260831115705 | 20 | 300 | 0.0 | 0.0 | 0.00 | 0.00 | 0.00 | 99 | 1015.5 |
| 20260831115201 | 20 | 296 | 0.0 | 0.0 | 0.00 | 0.00 | 0.00 | 99 | 1015.5 |
| 20260831114700 | 20 | 297 | 0.0 | 0.0 | 0.00 | 0.00 | 0.00 | 99 | 1015.7 |
| 20260831114159 | 20 | 297 | 0.0 | 0.0 | 0.00 | 0.00 | 0.00 | 99 | 1015.5 |
| 20260831113654 | 20 | 298 | 0.0 | 0.0 | 0.00 | 0.00 | 0.00 | 99 | 1015.5 |
| 20260831113149 | 20 | 298 | 0.0 | 0.0 | 0.00 | 0.00 | 0.00 | 99 | 1015.4 |
| 20260831112648 | 20 | 333 | 0.0 | 0.0 | 0.00 | 0.00 | 0.00 | 99 | 1015.4 |
| 20260831112144 | 20 | 295 | 0.0 | 0.0 | 0.00 | 0.00 | 0.00 | 99 | 1015.5 |
| 20260831111639 | 20 | 291 | 0.0 | 0.0 | 0.00 | 0.00 | 0.00 | 99 | 1015.5 |
| 20260831111135 | 20 | 290 | 0.0 | 0.0 | 0.00 | 0.00 | 0.00 | 99 | 1015.5 |
| 20260831110631 | 20 | 286 | 0.0 | 0.0 | 0.00 | 0.00 | 0.00 | 99 | 1015.6 |
| 20260831110126 | 20 | 286 | 0.0 | 0.0 | 0.00 | 0.00 | 0.00 | 99 | 1015.8 |
| 20260831105625 | 20 | 285 | 0.0 | 0.0 | 0.00 | 0.00 | 0.00 | 99 | 1015.8 |
| 20260831105120 | 20 | 292 | 0.0 | 0.0 | 0.00 | 0.00 | 0.00 | 99 | 1015.8 |
| 20260831104615 | 20 | 281 | 0.0 | 0.0 | 0.00 | 0.00 | 0.00 | 99 | 1015.9 |
| 20260831104112 | 20 | 313 | 0.0 | 0.0 | 0.00 | 0.00 | 0.00 | 99 | 1015.9 |
| 20260831103606 | 20 | 320 | 0.0 | 0.0 | 0.00 | 0.00 | 0.00 | 99 | 1015.7 |
| 20260831103057 | 20 | 318 | 0.0 | 0.0 | 0.00 | 0.00 | 0.00 | 99 | 1015.6 |
| 20260831102556 | 20 | 309 | 0.0 | 0.0 | 0.00 | 0.00 | 0.00 | 99 | 1015.8 |
| 20260831102052 | 20 | 298 | 0.0 | 0.0 | 0.00 | 0.00 | 0.00 | 99 | 1015.7 |
| 20260831101546 | 20 | 318 | 0.0 | 0.0 | 0.00 | 0.00 | 0.00 | 99 | 1015.6 |
| 20260831101043 | 19 | 312 | 0.0 | 0.0 | 0.00 | 0.00 | 0.00 | 99 | 1015.9 |
| 20260831100538 | 19 | 312 | 0.0 | 0.0 | 0.00 | 0.00 | 0.00 | 99 | 1015.7 |
| 20260831100034 | 19 | 316 | 0.0 | 0.0 | 0.00 | 0.00 | 0.00 | 99 | 1015.6 |
| 20260831095532 | 19 | 305 | 0.0 | 0.0 | 0.00 | 0.00 | 0.00 | 99 | 1015.7 |
| 20260831095032 | 19 | 289 | 0.0 | 0.0 | 0.00 | 0.00 | 0.00 | 99 | 1015.3 |
| 20260831094529 | 19 | 295 | 0.0 | 0.0 | 0.00 | 0.00 | 0.00 | 99 | 1015.4 |
| 20260831094024 | 19 | 289 | 0.0 | 0.0 | 0.00 | 0.00 | 0.00 | 99 | 1015.6 |
| 20260831093519 | 19 | 303 | 0.0 | 0.0 | 0.00 | 0.00 | 0.00 | 99 | 1015.4 |
| 20260831093016 | 19 | 285 | 0.0 | 0.0 | 0.00 | 0.00 | 0.00 | 99 | 1015.6 |
| 20260831092511 | 19 | 299 | 0.0 | 0.0 | 0.00 | 0.00 | 0.00 | 99 | 1015.6 |
| 20260831092007 | 19 | 317 | 0.0 | 0.0 | 0.00 | 0.00 | 0.00 | 99 | 1015.6 |
| 20260831091502 | 19 | 317 | 0.0 | 0.0 | 0.00 | 0.00 | 0.00 | 99 | 1015.5 |
| 20260831090956 | 19 | 311 | 0.0 | 0.0 | 0.00 | 0.00 | 0.00 | 99 | 1015.6 |
| 20260831090453 | 19 | 304 | 0.0 | 0.0 | 0.00 | 0.00 | 0.00 | 99 | 1015.6 |
| 20260831085948 | 19 | 287 | 0.0 | 0.0 | 0.00 | 0.00 | 0.00 | 99 | 1015.4 |
| 20260831085444 | 19 | 343 | 0.0 | 0.0 | 0.00 | 0.00 | 0.00 | 99 | 1015.3 |
| 20260831084943 | 19 | 328 | 0.0 | 0.0 | 0.00 | 0.00 | 0.00 | 99 | 1015.5 |
| 20260831084439 | 19 | 291 | 0.0 | 0.0 | 0.00 | 0.00 | 0.00 | 99 | 1015.4 |
| 20260831083936 | 19 | 303 | 0.0 | 0.0 | 0.00 | 0.00 | 0.00 | 99 | 1015.2 |
| 20260831083430 | 19 | 289 | 0.0 | 0.0 | 0.00 | 0.00 | 0.00 | 99 | 1015.5 |
| 20260831082929 | 19 | 309 | 0.0 | 0.0 | 0.00 | 0.00 | 0.00 | 99 | 1015.2 |
| 20260831082424 | 19 | 309 | 0.0 | 0.0 | 0.00 | 0.00 | 0.00 | 99 | 1015.0 |
| 20260831081919 | 19 | 299 | 0.0 | 0.0 | 0.00 | 0.00 | 0.00 | 99 | 1015.1 |
| 20260831081415 | 19 | 280 | 0.0 | 0.0 | 0.00 | 0.00 | 0.00 | 99 | 1015.1 |
| 20260831080911 | 19 | 304 | 0.0 | 0.0 | 0.00 | 0.00 | 0.00 | 99 | 1015.0 |
| 20260831080406 | 19 | 328 | 0.0 | 0.0 | 0.00 | 0.00 | 0.00 | 99 | 1015.1 |
| 20260831075901 | 19 | 310 | 0.0 | 0.0 | 0.00 | 0.00 | 0.00 | 99 | 1014.9 |
| 20260831075356 | 19 | 301 | 0.0 | 0.0 | 0.00 | 0.00 | 0.00 | 99 | 1015.1 |
| 20260831074851 | 20 | 290 | 0.0 | 0.0 | 0.00 | 0.00 | 0.00 | 99 | 1015.0 |
| 20260831074350 | 20 | 295 | 0.0 | 0.0 | 0.00 | 0.00 | 0.00 | 99 | 1015.0 |
| 20260831073846 | 20 | 305 | 0.0 | 0.0 | 0.00 | 0.00 | 0.00 | 98 | 1015.2 |
| 20260831073345 | 20 | 322 | 0.0 | 0.0 | 0.00 | 0.00 | 0.00 | 98 | 1015.1 |
| 20260831072840 | 20 | 292 | 0.0 | 0.0 | 0.00 | 0.00 | 0.00 | 97 | 1015.3 |
| 20260831072336 | 20 | 292 | 0.0 | 0.0 | 0.00 | 0.00 | 0.00 | 96 | 1015.3 |
| 20260831071832 | 20 | 313 | 0.0 | 0.0 | 0.00 | 0.00 | 0.00 | 96 | 1015.4 |
| 20260831071331 | 20 | 285 | 0.0 | 0.0 | 0.00 | 0.00 | 0.00 | 96 | 1015.4 |
| 20260831070826 | 20 | 283 | 0.0 | 0.0 | 0.00 | 0.00 | 0.00 | 96 | 1015.3 |
| 20260831070325 | 20 | 329 | 0.0 | 0.0 | 0.00 | 0.00 | 0.00 | 97 | 1015.7 |
| 20260831065824 | 20 | 251 | 0.0 | 0.0 | 0.00 | 0.00 | 0.00 | 97 | 1015.5 |
| 20260831065322 | 20 | 315 | 0.0 | 0.0 | 0.00 | 0.00 | 0.00 | 97 | 1015.3 |
| 20260831064817 | 20 | 315 | 0.0 | 1.6 | 0.00 | 0.00 | 0.00 | 97 | 1015.8 |
| 20260831064313 | 20 | 319 | 0.0 | 0.0 | 0.00 | 0.00 | 0.00 | 96 | 1015.7 |
| 20260831063809 | 20 | 292 | 0.0 | 0.0 | 0.00 | 0.00 | 0.00 | 96 | 1015.6 |
| 20260831063304 | 20 | 285 | 0.0 | 0.0 | 0.00 | 0.00 | 0.00 | 95 | 1015.6 |
| 20260831062803 | 21 | 287 | 0.0 | 0.0 | 0.00 | 0.00 | 0.00 | 95 | 1015.8 |
| 20260831062258 | 21 | 274 | 0.0 | 0.0 | 0.00 | 0.00 | 0.00 | 95 | 1015.6 |
| 20260831061756 | 21 | 286 | 0.0 | 0.0 | 0.00 | 0.00 | 0.00 | 94 | 1015.7 |
| 20260831061251 | 21 | 297 | 0.0 | 0.0 | 0.00 | 0.00 | 0.00 | 94 | 1016.1 |
| 20260831060748 | 21 | 293 | 0.0 | 0.0 | 0.00 | 0.00 | 0.00 | 94 | 1015.9 |
| 20260831060247 | 21 | 280 | 0.0 | 1.6 | 0.00 | 0.00 | 0.00 | 94 | 1015.9 |
| 20260831055747 | 21 | 293 | 0.0 | 0.0 | 0.00 | 0.00 | 0.00 | 94 | 1016.0 |
| 20260831055242 | 21 | 271 | 1.6 | 3.2 | 0.00 | 0.00 | 0.00 | 94 | 1016.2 |
| 20260831054737 | 21 | 279 | 0.0 | 0.0 | 0.00 | 0.00 | 0.00 | 94 | 1016.0 |
| 20260831054232 | 21 | 296 | 0.0 | 0.0 | 0.00 | 0.00 | 0.00 | 93 | 1016.0 |
| 20260831053731 | 21 | 286 | 0.0 | 0.0 | 0.00 | 0.00 | 0.00 | 93 | 1015.8 |
| 20260831053230 | 21 | 258 | 1.6 | 3.2 | 0.00 | 0.00 | 0.00 | 93 | 1015.8 |
| 20260831052729 | 21 | 287 | 0.0 | 0.0 | 0.00 | 0.00 | 0.00 | 92 | 1016.1 |
| 20260831052223 | 21 | 271 | 0.0 | 1.6 | 0.00 | 0.00 | 0.00 | 92 | 1015.9 |
| 20260831051722 | 21 | 340 | 0.0 | 0.0 | 0.00 | 0.00 | 0.00 | 92 | 1015.9 |
| 20260831051220 | 21 | 265 | 1.6 | 1.6 | 0.00 | 0.00 | 0.00 | 92 | 1016.0 |
| 20260831050715 | 21 | 290 | 1.6 | 1.6 | 0.00 | 0.00 | 0.00 | 92 | 1015.9 |
| 20260831050214 | 22 | 336 | 0.0 | 0.0 | 0.00 | 0.00 | 0.00 | 91 | 1016.0 |
| 20260831045709 | 22 | 304 | 0.0 | 1.6 | 0.00 | 0.00 | 0.00 | 91 | 1015.8 |
| 20260831045203 | 22 | 280 | 1.6 | 3.2 | 0.00 | 0.00 | 0.00 | 91 | 1015.9 |
| 20260831044658 | 22 | 242 | 8.0 | 11.3 | 0.00 | 0.00 | 0.00 | 91 | 1015.6 |
| 20260831044154 | 22 | 269 | 0.0 | 0.0 | 0.00 | 0.00 | 0.00 | 92 | 1016.0 |
| 20260831043649 | 22 | 295 | 0.0 | 0.0 | 0.00 | 0.00 | 0.00 | 92 | 1015.9 |
| 20260831043144 | 22 | 257 | 0.0 | 1.6 | 0.00 | 0.00 | 0.00 | 92 | 1015.9 |
| 20260831042643 | 22 | 277 | 3.2 | 3.2 | 0.00 | 0.00 | 0.00 | 93 | 1015.9 |
| 20260831042138 | 22 | 220 | 1.6 | 3.2 | 0.00 | 0.00 | 0.00 | 93 | 1015.6 |
| 20260831041632 | 21 | 308 | 3.2 | 3.2 | 0.00 | 0.00 | 0.00 | 93 | 1015.6 |
| 20260831041127 | 21 | 280 | 1.6 | 1.6 | 0.00 | 0.00 | 0.00 | 94 | 1015.8 |
| 20260831040622 | 21 | 295 | 3.2 | 4.8 | 0.00 | 0.00 | 0.00 | 94 | 1015.8 |
| 20260831040121 | 21 | 261 | 1.6 | 1.6 | 0.00 | 0.00 | 0.00 | 94 | 1015.9 |
| 20260831035620 | 21 | 285 | 3.2 | 3.2 | 0.00 | 2.57 | 2.57 | 94 | 1015.8 |
| 20260831035115 | 21 | 294 | 1.6 | 1.6 | 0.00 | 2.57 | 2.57 | 94 | 1016.0 |
| 20260831034614 | 21 | 217 | 1.6 | 1.6 | 0.00 | 2.57 | 2.57 | 94 | 1016.0 |
| 20260831034109 | 21 | 21 | 0.0 | 1.6 | 0.00 | 2.57 | 2.57 | 93 | 1015.9 |
| 20260831033605 | 21 | 266 | 1.6 | 1.6 | 0.00 | 2.57 | 2.57 | 94 | 1015.9 |
| 20260831033100 | 21 | 228 | 0.0 | 0.0 | 0.00 | 2.57 | 2.57 | 94 | 1015.9 |
| 20260831032559 | 21 | 66 | 0.0 | 0.0 | 0.00 | 2.57 | 2.57 | 94 | 1015.8 |
| 20260831032055 | 21 | 288 | 0.0 | 0.0 | 0.00 | 2.57 | 2.57 | 94 | 1015.9 |
| 20260831031554 | 21 | 254 | 0.0 | 0.0 | 0.00 | 2.57 | 2.57 | 94 | 1015.9 |
| 20260831031054 | 21 | 260 | 0.0 | 0.0 | 0.00 | 2.57 | 2.57 | 94 | 1015.7 |
| 20260831030553 | 21 | 252 | 0.0 | 0.0 | 0.00 | 2.57 | 2.57 | 94 | 1015.7 |
| 20260831030052 | 21 | 14 | 0.0 | 0.0 | 0.00 | 2.57 | 2.57 | 94 | 1015.7 |
| 20260831025551 | 21 | 297 | 1.6 | 3.2 | 0.00 | 2.57 | 2.57 | 94 | 1015.9 |
| 20260831025046 | 21 | 58 | 0.0 | 1.6 | 0.00 | 2.57 | 2.57 | 94 | 1015.9 |
| 20260831024542 | 21 | 312 | 0.0 | 1.6 | 0.00 | 2.57 | 2.57 | 94 | 1015.8 |
| 20260831024041 | 21 | 298 | 1.6 | 1.6 | 0.00 | 2.57 | 2.57 | 94 | 1015.7 |
| 20260831023539 | 21 | 189 | 0.0 | 0.0 | 0.00 | 2.57 | 2.57 | 94 | 1015.5 |
| 20260831023034 | 21 | 305 | 0.0 | 0.0 | 0.00 | 2.57 | 2.57 | 93 | 1015.7 |
| 20260831022533 | 21 | 320 | 0.0 | 0.0 | 0.00 | 2.57 | 2.57 | 93 | 1015.3 |
| 20260831022029 | 21 | 27 | 0.0 | 0.0 | 0.00 | 2.57 | 2.57 | 93 | 1015.3 |
| 20260831021527 | 21 | 22 | 0.0 | 0.0 | 0.00 | 2.57 | 2.57 | 93 | 1015.4 |
| 20260831021024 | 21 | 301 | 1.6 | 1.6 | 0.00 | 2.57 | 2.57 | 93 | 1015.4 |
| 20260831020519 | 21 | 30 | 0.0 | 0.0 | 0.00 | 2.57 | 2.57 | 92 | 1015.6 |
| 20260831020014 | 21 | 280 | 0.0 | 0.0 | 0.00 | 2.57 | 2.57 | 92 | 1015.3 |
| 20260831015509 | 21 | 144 | 0.0 | 1.6 | 0.00 | 2.57 | 2.57 | 92 | 1015.3 |
| 20260831015004 | 21 | 100 | 3.2 | 3.2 | 0.00 | 2.57 | 2.57 | 92 | 1015.5 |
| 20260831014458 | 21 | 71 | 0.0 | 0.0 | 0.00 | 2.57 | 2.57 | 92 | 1015.5 |
| 20260831013954 | 21 | 265 | 0.0 | 0.0 | 0.00 | 2.57 | 2.57 | 91 | 1015.2 |
| 20260831013450 | 21 | 313 | 0.0 | 0.0 | 0.00 | 2.57 | 2.57 | 91 | 1015.2 |
| 20260831012943 | 21 | 314 | 0.0 | 0.0 | 0.00 | 2.57 | 2.57 | 91 | 1015.1 |
| 20260831012439 | 21 | 287 | 1.6 | 1.6 | 0.00 | 2.57 | 2.57 | 91 | 1015.0 |
| 20260831011938 | 22 | 297 | 0.0 | 1.6 | 0.00 | 2.57 | 2.57 | 90 | 1015.0 |
| 20260831011433 | 22 | 266 | 3.2 | 4.8 | 0.00 | 2.57 | 2.57 | 90 | 1014.8 |
| 20260831010929 | 22 | 31 | 0.0 | 0.0 | 0.00 | 2.57 | 2.57 | 91 | 1014.9 |
| 20260831010424 | 21 | 208 | 0.0 | 0.0 | 0.00 | 2.57 | 2.57 | 91 | 1014.8 |
| 20260831005920 | 21 | 271 | 0.0 | 0.0 | 0.00 | 2.57 | 2.57 | 91 | 1015.0 |
| 20260831005415 | 21 | 187 | 0.0 | 0.0 | 0.00 | 2.57 | 2.57 | 91 | 1014.8 |
| 20260831004909 | 22 | 233 | 1.6 | 1.6 | 0.00 | 2.57 | 2.57 | 91 | 1014.8 |
| 20260831004406 | 22 | 190 | 1.6 | 1.6 | 0.00 | 2.57 | 2.57 | 90 | 1014.6 |
| 20260831003901 | 22 | 228 | 0.0 | 0.0 | 0.00 | 2.57 | 2.57 | 90 | 1014.7 |
| 20260831003357 | 22 | 15 | 0.0 | 1.6 | 0.00 | 2.57 | 2.57 | 89 | 1014.6 |
| 20260831002857 | 22 | 201 | 1.6 | 4.8 | 0.00 | 2.57 | 2.57 | 90 | 1014.6 |
| 20260831002356 | 22 | 297 | 0.0 | 0.0 | 0.00 | 2.57 | 2.57 | 89 | 1014.4 |
| 20260831001851 | 22 | 354 | 0.0 | 0.0 | 0.00 | 2.57 | 2.57 | 89 | 1014.6 |
| 20260831001351 | 22 | 45 | 0.0 | 0.0 | 0.00 | 2.57 | 2.57 | 89 | 1014.6 |
| 20260831000849 | 22 | 338 | 0.0 | 0.0 | 0.00 | 2.57 | 2.57 | 88 | 1014.8 |
| 20260831000344 | 22 | 276 | 0.0 | 0.0 | 0.00 | 2.57 | 2.57 | 88 | 1014.9 |
| 20260830235842 | 22 | 67 | 1.6 | 3.2 | 0.00 | 2.57 | 2.57 | 88 | 1014.7 |
| 20260830235337 | 22 | 20 | 0.0 | 1.6 | 0.00 | 2.57 | 2.57 | 87 | 1014.7 |
| 20260830234833 | 22 | 333 | 0.0 | 0.0 | 0.00 | 2.57 | 2.57 | 88 | 1014.6 |
| 20260830234328 | 22 | 287 | 0.0 | 1.6 | 0.00 | 2.57 | 2.57 | 88 | 1014.8 |
| 20260830233824 | 22 | 198 | 4.8 | 4.8 | 0.00 | 2.57 | 2.57 | 88 | 1014.6 |
| 20260830233319 | 22 | 251 | 3.2 | 4.8 | 0.00 | 2.57 | 2.57 | 87 | 1015.0 |
| 20260830232815 | 23 | 79 | 0.0 | 0.0 | 0.00 | 2.57 | 2.57 | 87 | 1014.8 |
| 20260830232310 | 23 | 280 | 0.0 | 0.0 | 0.00 | 2.57 | 2.57 | 87 | 1014.8 |
| 20260830231807 | 23 | 205 | 1.6 | 3.2 | 0.00 | 2.57 | 2.57 | 86 | 1014.5 |
| 20260830231307 | 23 | 37 | 0.0 | 1.6 | 0.00 | 2.57 | 2.57 | 85 | 1014.7 |
| 20260830230801 | 23 | 65 | 1.6 | 3.2 | 0.00 | 2.57 | 2.57 | 85 | 1014.7 |
| 20260830230257 | 23 | 248 | 0.0 | 0.0 | 0.00 | 2.57 | 2.57 | 85 | 1014.8 |
| 20260830225756 | 23 | 206 | 0.0 | 0.0 | 0.00 | 2.57 | 2.57 | 85 | 1014.7 |
| 20260830225251 | 23 | 47 | 1.6 | 1.6 | 0.00 | 2.57 | 2.57 | 84 | 1014.8 |
| 20260830224750 | 23 | 295 | 0.0 | 0.0 | 0.00 | 2.57 | 2.57 | 84 | 1014.9 |
| 20260830224246 | 23 | 184 | 3.2 | 3.2 | 0.00 | 2.57 | 2.57 | 83 | 1014.9 |
| 20260830223743 | 24 | 228 | 1.6 | 1.6 | 0.00 | 2.57 | 2.57 | 83 | 1015.1 |
| 20260830223238 | 24 | 222 | 0.0 | 0.0 | 0.00 | 2.57 | 2.57 | 82 | 1015.0 |
| 20260830222732 | 24 | 206 | 0.0 | 1.6 | 0.00 | 2.57 | 2.57 | 82 | 1015.2 |
| 20260830222227 | 25 | 12 | 0.0 | 0.0 | 0.00 | 2.57 | 2.57 | 82 | 1015.3 |
| 20260830221723 | 25 | 201 | 1.6 | 1.6 | 0.00 | 2.57 | 2.57 | 81 | 1015.4 |
| 20260830221220 | 24 | 27 | 0.0 | 0.0 | 0.00 | 2.57 | 2.57 | 82 | 1015.4 |
| 20260830220715 | 24 | 99 | 1.6 | 1.6 | 0.00 | 2.57 | 2.57 | 83 | 1015.1 |
| 20260830220214 | 24 | 145 | 3.2 | 3.2 | 0.00 | 2.57 | 2.57 | 82 | 1015.5 |
| 20260830215713 | 24 | 212 | 1.6 | 1.6 | 0.00 | 2.57 | 2.57 | 81 | 1015.5 |
| 20260830215207 | 23 | 288 | 1.6 | 1.6 | 0.00 | 2.57 | 2.57 | 83 | 1015.7 |
| 20260830214657 | 23 | 220 | 3.2 | 3.2 | 0.00 | 2.57 | 2.57 | 83 | 1015.7 |
| 20260830214157 | 24 | 311 | 0.0 | 0.0 | 0.00 | 2.57 | 2.57 | 83 | 1015.4 |
| 20260830213656 | 24 | 283 | 3.2 | 3.2 | 0.00 | 2.57 | 2.57 | 83 | 1015.6 |
| 20260830213152 | 24 | 49 | 1.6 | 4.8 | 0.00 | 2.57 | 2.57 | 83 | 1015.4 |
| 20260830212648 | 25 | 288 | 0.0 | 1.6 | 0.00 | 2.57 | 2.57 | 82 | 1015.6 |
| 20260830212142 | 24 | 219 | 1.6 | 1.6 | 0.00 | 2.57 | 2.57 | 81 | 1015.5 |
| 20260830211637 | 23 | 277 | 0.0 | 0.0 | 0.00 | 2.57 | 2.57 | 83 | 1015.3 |
| 20260830211136 | 23 | 68 | 3.2 | 3.2 | 0.00 | 2.57 | 2.57 | 84 | 1015.7 |
| 20260830210633 | 23 | 244 | 0.0 | 1.6 | 0.00 | 2.57 | 2.57 | 85 | 1015.7 |
| 20260830210132 | 23 | 88 | 1.6 | 3.2 | 0.00 | 2.57 | 2.57 | 86 | 1016.0 |
| 20260830205629 | 23 | 292 | 1.6 | 1.6 | 0.00 | 2.57 | 2.57 | 86 | 1015.8 |
| 20260830205124 | 23 | 189 | 0.0 | 1.6 | 0.00 | 2.57 | 2.57 | 85 | 1015.6 |
| 20260830204624 | 23 | 274 | 0.0 | 1.6 | 0.00 | 2.57 | 2.57 | 85 | 1015.6 |
| 20260830204123 | 23 | 295 | 0.0 | 0.0 | 0.00 | 2.57 | 2.57 | 86 | 1015.8 |
| 20260830203619 | 23 | 285 | 1.6 | 3.2 | 0.00 | 2.57 | 2.57 | 86 | 1015.6 |
| 20260830203119 | 23 | 281 | 0.0 | 0.0 | 0.00 | 2.57 | 2.57 | 86 | 1015.6 |
| 20260830202619 | 23 | 297 | 0.0 | 1.6 | 0.00 | 2.57 | 2.57 | 87 | 1015.5 |
| 20260830202114 | 23 | 358 | 0.0 | 0.0 | 0.00 | 2.57 | 2.57 | 87 | 1015.6 |
| 20260830201614 | 23 | 245 | 3.2 | 3.2 | 0.00 | 2.57 | 2.57 | 86 | 1015.5 |
| 20260830201109 | 23 | 42 | 0.0 | 0.0 | 0.00 | 2.57 | 2.57 | 88 | 1015.5 |
| 20260830200605 | 23 | 98 | 3.2 | 3.2 | 0.00 | 2.57 | 2.57 | 87 | 1015.5 |
| 20260830200103 | 23 | 208 | 1.6 | 3.2 | 0.00 | 2.57 | 2.57 | 88 | 1015.4 |
| 20260830195559 | 23 | 323 | 0.0 | 0.0 | 0.00 | 2.57 | 2.57 | 89 | 1015.5 |
| 20260830195056 | 23 | 51 | 0.0 | 0.0 | 0.00 | 2.57 | 2.57 | 89 | 1015.7 |
| 20260830194551 | 23 | 215 | 0.0 | 1.6 | 0.00 | 2.57 | 2.57 | 89 | 1015.5 |
| 20260830194045 | 23 | 202 | 0.0 | 0.0 | 0.00 | 2.57 | 2.57 | 88 | 1015.4 |
| 20260830193544 | 23 | 183 | 0.0 | 0.0 | 0.00 | 2.57 | 2.57 | 89 | 1015.4 |
| 20260830193040 | 23 | 270 | 0.0 | 0.0 | 0.00 | 2.57 | 2.57 | 90 | 1015.7 |
| 20260830192535 | 23 | 252 | 0.0 | 0.0 | 0.00 | 2.57 | 2.57 | 90 | 1015.8 |
| 20260830192029 | 22 | 6 | 0.0 | 0.0 | 0.00 | 2.57 | 2.57 | 90 | 1015.9 |
| 20260830191525 | 22 | 75 | 3.2 | 4.8 | 0.00 | 2.57 | 2.57 | 92 | 1015.8 |
| 20260830191020 | 22 | 228 | 1.6 | 3.2 | 0.00 | 2.57 | 2.57 | 91 | 1016.0 |
| 20260830190515 | 22 | 186 | 1.6 | 3.2 | 0.00 | 2.57 | 2.57 | 91 | 1015.9 |
| 20260830190010 | 22 | 212 | 0.0 | 0.0 | 0.00 | 2.57 | 2.57 | 91 | 1016.0 |
| 20260830185504 | 22 | 299 | 0.0 | 0.0 | 0.00 | 2.57 | 2.57 | 92 | 1016.1 |
| 20260830185000 | 22 | 266 | 0.0 | 0.0 | 0.00 | 2.57 | 2.57 | 92 | 1015.9 |
| 20260830184459 | 22 | 304 | 0.0 | 0.0 | 0.00 | 2.57 | 2.57 | 92 | 1016.3 |
| 20260830183953 | 22 | 274 | 0.0 | 1.6 | 0.00 | 2.57 | 2.57 | 92 | 1016.3 |
| 20260830183448 | 22 | 286 | 0.0 | 0.0 | 0.00 | 2.57 | 2.57 | 92 | 1016.2 |
| 20260830182943 | 22 | 209 | 0.0 | 0.0 | 0.00 | 2.57 | 2.57 | 92 | 1016.2 |
| 20260830182438 | 22 | 277 | 0.0 | 0.0 | 0.00 | 2.57 | 2.57 | 92 | 1016.0 |
| 20260830181935 | 22 | 195 | 0.0 | 3.2 | 0.00 | 2.57 | 2.57 | 93 | 1016.0 |
| 20260830181431 | 22 | 201 | 3.2 | 3.2 | 0.00 | 2.57 | 2.57 | 93 | 1016.1 |
| 20260830180925 | 21 | 351 | 0.0 | 0.0 | 0.00 | 2.57 | 2.57 | 97 | 1016.1 |
| 20260830180425 | 21 | 320 | 0.0 | 0.0 | 0.00 | 2.57 | 2.57 | 99 | 1016.1 |
| 20260830175924 | 21 | 356 | 1.6 | 1.6 | 0.00 | 2.57 | 2.57 | 99 | 1016.1 |
| 20260830175423 | 20 | 68 | 0.0 | 0.0 | 0.00 | 2.57 | 2.57 | 99 | 1016.0 |
| 20260830174919 | 20 | 283 | 0.0 | 0.0 | 0.00 | 2.57 | 2.57 | 99 | 1016.3 |
| 20260830174414 | 20 | 264 | 0.0 | 0.0 | 0.00 | 2.57 | 2.57 | 99 | 1016.3 |
| 20260830173910 | 20 | 346 | 0.0 | 0.0 | 0.00 | 2.57 | 2.57 | 99 | 1016.3 |
| 20260830173405 | 20 | 262 | 1.6 | 1.6 | 0.00 | 2.57 | 2.57 | 99 | 1016.4 |
| 20260830172901 | 20 | 269 | 0.0 | 0.0 | 0.00 | 2.57 | 2.57 | 99 | 1016.3 |
| 20260830172357 | 19 | 274 | 0.0 | 1.6 | 0.00 | 2.57 | 2.57 | 99 | 1016.1 |
| 20260830171852 | 19 | 266 | 1.6 | 1.6 | 0.00 | 2.57 | 2.57 | 99 | 1016.4 |
| 20260830171348 | 19 | 307 | 0.0 | 0.0 | 0.00 | 2.57 | 2.57 | 99 | 1016.4 |
| 20260830170843 | 19 | 34 | 0.0 | 0.0 | 0.00 | 2.57 | 2.57 | 99 | 1016.6 |
| 20260830170342 | 19 | 44 | 0.0 | 0.0 | 0.00 | 2.57 | 2.57 | 99 | 1016.3 |
| 20260830165840 | 19 | 330 | 0.0 | 0.0 | 0.00 | 2.57 | 2.57 | 99 | 1016.5 |
| 20260830165337 | 18 | 296 | 0.0 | 0.0 | 0.00 | 2.57 | 2.57 | 99 | 1016.3 |
| 20260830164833 | 18 | 303 | 0.0 | 0.0 | 0.00 | 2.57 | 2.57 | 99 | 1016.5 |
| 20260830164328 | 19 | 276 | 1.6 | 1.6 | 0.00 | 2.57 | 2.57 | 99 | 1016.6 |
| 20260830163825 | 19 | 321 | 0.0 | 0.0 | 0.00 | 2.57 | 2.57 | 99 | 1016.4 |
| 20260830163320 | 18 | 245 | 6.4 | 9.7 | 0.00 | 2.57 | 2.57 | 99 | 1016.4 |
| 20260830162815 | 18 | 211 | 0.0 | 0.0 | 0.00 | 2.57 | 2.57 | 99 | 1016.6 |
| 20260830162311 | 18 | 249 | 0.0 | 0.0 | 0.00 | 2.57 | 2.57 | 99 | 1016.7 |
| 20260830161806 | 18 | 272 | 0.0 | 0.0 | 0.00 | 2.57 | 2.57 | 99 | 1016.9 |
| 20260830161305 | 18 | 172 | 4.8 | 4.8 | 0.00 | 2.57 | 2.57 | 99 | 1017.0 |
| 20260830160801 | 18 | 256 | 0.0 | 0.0 | 0.00 | 2.57 | 2.57 | 99 | 1016.9 |
| 20260830160300 | 18 | 227 | 0.0 | 0.0 | 0.00 | 2.57 | 2.57 | 99 | 1017.1 |
| 20260830155751 | 18 | 239 | 0.0 | 0.0 | 0.00 | 2.57 | 2.57 | 99 | 1017.4 |
| 20260830155248 | 18 | 301 | 3.2 | 3.2 | 0.18 | 2.57 | 2.57 | 99 | 1017.7 |
| 20260830154748 | 18 | 294 | 0.0 | 0.0 | 0.48 | 2.57 | 2.57 | 99 | 1017.6 |
| 20260830154243 | 18 | 196 | 0.0 | 0.0 | 0.30 | 2.54 | 2.54 | 99 | 1017.5 |
| 20260830153740 | 18 | 307 | 0.0 | 1.6 | 0.43 | 2.49 | 2.49 | 99 | 1017.7 |
| 20260830153235 | 18 | 84 | 1.6 | 1.6 | 0.61 | 2.49 | 2.49 | 99 | 1017.5 |
| 20260830152733 | 18 | 234 | 0.0 | 0.0 | 0.48 | 2.41 | 2.41 | 99 | 1017.9 |
| 20260830152228 | 18 | 299 | 0.0 | 0.0 | 0.48 | 2.39 | 2.39 | 99 | 1018.1 |
| 20260830151723 | 18 | 310 | 0.0 | 0.0 | 0.30 | 2.34 | 2.34 | 99 | 1017.8 |
| 20260830151222 | 18 | 91 | 1.6 | 3.2 | 0.13 | 2.31 | 2.31 | 99 | 1017.7 |
| 20260830150717 | 18 | 290 | 1.6 | 3.2 | 0.00 | 2.29 | 2.29 | 99 | 1017.6 |
| 20260830150211 | 18 | 317 | 1.6 | 3.2 | 0.18 | 2.29 | 2.29 | 99 | 1018.0 |
| 20260830145706 | 18 | 294 | 1.6 | 1.6 | 0.30 | 2.29 | 2.29 | 99 | 1017.9 |
| 20260830145201 | 18 | 27 | 0.0 | 0.0 | 0.30 | 2.26 | 2.26 | 99 | 1018.1 |
| 20260830144656 | 18 | 258 | 0.0 | 0.0 | 0.48 | 2.24 | 2.24 | 99 | 1018.1 |
| 20260830144152 | 18 | 298 | 0.0 | 0.0 | 0.43 | 2.21 | 2.21 | 99 | 1018.3 |
| 20260830143648 | 18 | 50 | 0.0 | 0.0 | 0.30 | 2.18 | 2.18 | 99 | 1018.2 |
| 20260830143146 | 18 | 47 | 0.0 | 0.0 | 0.30 | 2.13 | 2.13 | 99 | 1018.1 |
| 20260830142641 | 18 | 119 | 0.0 | 0.0 | 0.97 | 2.13 | 2.13 | 99 | 1018.6 |
| 20260830142136 | 18 | 327 | 0.0 | 0.0 | 0.97 | 2.08 | 2.08 | 99 | 1018.7 |
| 20260830141631 | 18 | 205 | 0.0 | 0.0 | 0.43 | 1.98 | 1.98 | 99 | 1018.5 |
| 20260830141126 | 18 | 282 | 0.0 | 0.0 | 0.43 | 1.93 | 1.93 | 99 | 1018.6 |
| 20260830140622 | 18 | 306 | 0.0 | 0.0 | 0.61 | 1.91 | 1.91 | 99 | 1018.2 |
| 20260830140121 | 18 | 316 | 0.0 | 0.0 | 0.48 | 1.85 | 1.85 | 99 | 1018.2 |
| 20260830135616 | 18 | 280 | 0.0 | 0.0 | 0.30 | 1.83 | 1.83 | 99 | 1018.4 |
| 20260830135111 | 18 | 104 | 0.0 | 0.0 | 0.30 | 1.78 | 1.78 | 99 | 1018.4 |
| 20260830134607 | 18 | 308 | 1.6 | 3.2 | 0.66 | 1.75 | 1.75 | 99 | 1018.5 |
| 20260830134102 | 18 | 211 | 0.0 | 0.0 | 0.79 | 1.73 | 1.73 | 99 | 1018.3 |
| 20260830133557 | 18 | 251 | 0.0 | 0.0 | 0.61 | 1.65 | 1.65 | 99 | 1018.7 |
| 20260830133052 | 18 | 294 | 0.0 | 1.6 | 0.71 | 1.60 | 1.60 | 99 | 1018.6 |
| 20260830132549 | 18 | 339 | 0.0 | 0.0 | 0.61 | 1.55 | 1.55 | 99 | 1018.1 |
| 20260830132043 | 18 | 207 | 0.0 | 0.0 | 0.43 | 1.50 | 1.50 | 99 | 1018.5 |
| 20260830131542 | 18 | 305 | 3.2 | 3.2 | 0.48 | 1.45 | 1.45 | 99 | 1018.5 |
| 20260830131037 | 18 | 282 | 0.0 | 0.0 | 0.66 | 1.42 | 1.42 | 99 | 1018.3 |